contact:dominique.lefevre@mio.osupytheas.fr, maurice.libes@osupytheas.fr, didier.mallarino@osupytheas.fr
Project:EMSO http://www.emso-fr.org/EMSO-France
Depth: 2436.0 m
Title:EMSO Ligure Ouest : Data MII capteur AQUADOPP
Date,Latitude,Longitude,X_East,Y_North,Z_Up,Amplitude_X,Amplitude_Y,Amplitude_Z,Batterie,SoundSpeed,Heading,Pitch,Roll,Pressure,TIS,Speed,Direction
, degrees North, degrees East, m.s-1, m.s-1,m.s-1, 1, 1, 1, Volt, m.s-1, degree, degree, degree, dbar, degree_C, m.s-1, degree
2022-10-28T00:04:03,42.805,6.029,-0.022,0.012,0.023,102.0,102.0,101.0,13.3,1505.2,320.1,-0.8,1.8,2471.126,13.29,0.025,298.6
2022-10-28T00:07:03,42.805,6.029,-0.051,0.028,0.038,101.0,102.0,100.0,13.4,1505.2,328.4,-0.7,1.8,2471.16,13.29,0.058,298.8
2022-10-28T00:10:03,42.805,6.029,-0.036,0.016,-0.004,102.0,103.0,101.0,13.4,1505.2,327.5,-0.7,1.8,2471.139,13.29,0.039,294.0
2022-10-28T00:13:03,42.805,6.029,-0.019,0.021,0.036,102.0,102.0,100.0,13.3,1505.2,325.5,-0.8,1.8,2471.135,13.29,0.028,317.9
2022-10-28T00:16:03,42.805,6.029,-0.018,0.005,0.0,102.0,101.0,100.0,13.3,1505.2,329.7,-0.7,1.8,2471.093,13.29,0.018,285.5
2022-10-28T00:19:03,42.805,6.029,-0.034,0.033,-0.004,102.0,102.0,101.0,13.4,1505.2,329.5,-0.8,1.8,2471.11,13.29,0.047,314.1
2022-10-28T00:22:03,42.805,6.029,-0.038,0.013,0.004,102.0,102.0,101.0,13.4,1505.2,321.5,-0.8,1.8,2471.059,13.29,0.04,288.9
2022-10-28T00:25:03,42.805,6.029,-0.028,0.007,0.003,103.0,102.0,101.0,13.4,1505.2,322.5,-0.8,1.8,2471.092,13.29,0.028,284.0
2022-10-28T00:28:03,42.805,6.029,-0.024,0.035,-0.006,102.0,102.0,100.0,13.4,1505.2,319.6,-0.7,1.8,2471.064,13.29,0.042,325.6
2022-10-28T00:31:03,42.805,6.029,-0.039,0.005,0.021,101.0,102.0,102.0,13.4,1505.2,325.7,-0.8,1.8,2471.064,13.29,0.039,277.3
2022-10-28T00:34:03,42.805,6.029,-0.011,-0.004,0.008,102.0,102.0,101.0,13.3,1505.2,323.2,-0.8,1.8,2471.05,13.29,0.011,250.0
2022-10-28T00:37:03,42.805,6.029,-0.05,0.01,-0.007,102.0,103.0,100.0,13.4,1505.2,320.8,-0.8,1.8,2471.09,13.29,0.05,281.3
2022-10-28T00:40:03,42.805,6.029,-0.024,0.013,-0.001,102.0,102.0,100.0,13.4,1505.2,324.9,-0.8,1.8,2471.114,13.29,0.027,298.4
2022-10-28T00:43:03,42.805,6.029,-0.033,0.022,0.003,103.0,102.0,101.0,13.4,1505.2,327.5,-0.8,1.8,2471.103,13.29,0.039,303.7
2022-10-28T00:46:03,42.805,6.029,-0.035,-0.005,-0.007,103.0,103.0,100.0,13.4,1505.2,318.8,-0.7,1.8,2471.019,13.29,0.035,261.9
2022-10-28T00:49:03,42.805,6.029,-0.016,0.007,0.039,103.0,103.0,101.0,13.4,1505.2,321.8,-0.7,1.8,2471.045,13.29,0.017,293.6
2022-10-28T00:52:03,42.805,6.029,-0.031,0.021,0.006,101.0,103.0,101.0,13.4,1505.2,318.4,-0.8,1.9,2471.079,13.29,0.037,304.1
2022-10-28T00:55:03,42.805,6.029,-0.053,0.017,0.008,101.0,104.0,101.0,13.4,1505.2,317.6,-0.8,1.8,2471.055,13.29,0.055,287.8
2022-10-28T00:58:03,42.805,6.029,-0.05,0.018,0.016,102.0,102.0,100.0,13.4,1505.2,318.3,-0.8,1.8,2471.08,13.29,0.053,289.8
2022-10-28T01:04:03,42.805,6.029,-0.034,0.008,0.013,104.0,104.0,103.0,13.4,1505.2,322.4,-0.8,1.8,2471.126,13.29,0.034,283.2
2022-10-28T01:07:03,42.805,6.029,-0.015,0.018,0.033,103.0,103.0,102.0,13.4,1505.2,326.5,-0.8,1.8,2471.108,13.29,0.023,320.2
2022-10-28T01:10:04,42.805,6.029,-0.037,0.001,-0.005,101.0,103.0,101.0,13.4,1505.2,316.3,-0.8,1.8,2471.137,13.29,0.037,271.5
2022-10-28T01:13:03,42.805,6.029,-0.028,0.003,-0.005,102.0,102.0,100.0,13.4,1505.2,319.2,-0.7,1.8,2471.088,13.29,0.028,276.1
2022-10-28T01:16:03,42.805,6.029,-0.019,0.021,0.011,102.0,102.0,101.0,13.3,1505.2,318.1,-0.8,1.8,2471.074,13.29,0.028,317.9
2022-10-28T01:19:03,42.805,6.029,-0.058,0.025,-0.006,102.0,102.0,101.0,13.4,1505.2,321.9,-0.7,1.8,2471.051,13.29,0.063,293.3
2022-10-28T01:22:03,42.805,6.029,-0.043,-0.005,-0.004,101.0,103.0,101.0,13.4,1505.2,323.2,-0.8,1.8,2471.079,13.29,0.043,263.4
2022-10-28T01:25:03,42.805,6.029,-0.035,0.011,-0.002,102.0,102.0,100.0,13.3,1505.2,327.7,-0.8,1.9,2471.037,13.29,0.036,287.4
2022-10-28T01:28:03,42.805,6.029,-0.03,0.031,0.026,102.0,103.0,101.0,13.4,1505.2,328.3,-0.8,1.8,2471.1,13.29,0.043,315.9
2022-10-28T01:31:03,42.805,6.029,-0.019,-0.012,0.01,101.0,102.0,102.0,13.4,1505.2,330.3,-0.8,1.8,2471.065,13.29,0.022,237.7
2022-10-28T01:34:03,42.805,6.029,-0.038,0.026,0.026,100.0,104.0,101.0,13.4,1505.2,333.1,-0.8,1.8,2471.027,13.29,0.046,304.4
2022-10-28T01:37:03,42.805,6.029,-0.048,0.01,-0.003,102.0,102.0,100.0,13.4,1505.2,323.9,-0.8,1.8,2471.054,13.29,0.049,281.8
2022-10-28T01:40:03,42.805,6.029,-0.018,0.003,0.001,102.0,102.0,101.0,13.4,1505.2,323.1,-0.8,1.8,2471.002,13.29,0.018,279.5
2022-10-28T01:43:03,42.805,6.029,-0.058,-0.004,-0.004,101.0,103.0,100.0,13.4,1505.2,322.7,-0.8,1.8,2471.047,13.29,0.058,266.1
2022-10-28T01:46:03,42.805,6.029,-0.013,0.021,0.039,100.0,104.0,102.0,13.4,1505.2,321.2,-0.8,1.8,2471.055,13.29,0.024,328.2
2022-10-28T01:49:03,42.805,6.029,-0.039,0.02,0.008,101.0,102.0,101.0,13.4,1505.2,319.2,-0.8,1.8,2471.054,13.29,0.043,297.1
2022-10-28T01:52:03,42.805,6.029,-0.039,0.013,-0.007,103.0,103.0,100.0,13.4,1505.2,320.0,-0.7,1.8,2471.048,13.29,0.041,288.4
2022-10-28T01:55:03,42.805,6.029,-0.034,0.03,-0.008,102.0,102.0,101.0,13.4,1505.2,328.9,-0.8,1.8,2471.062,13.29,0.045,311.4
2022-10-28T01:58:03,42.805,6.029,-0.036,-0.005,-0.013,102.0,101.0,101.0,13.4,1505.2,321.0,-0.8,1.8,2471.031,13.29,0.036,262.1
2022-10-28T02:04:03,42.805,6.029,-0.034,0.023,-0.02,102.0,102.0,101.0,13.4,1505.2,324.2,-0.8,1.8,2471.072,13.29,0.041,304.1
2022-10-28T02:07:03,42.805,6.029,-0.073,0.017,-0.012,100.0,104.0,100.0,13.4,1505.2,323.2,-0.7,1.8,2471.078,13.29,0.074,283.1
2022-10-28T02:10:03,42.805,6.029,-0.041,-0.003,-0.022,102.0,103.0,100.0,13.4,1505.2,318.4,-0.8,1.8,2471.052,13.29,0.041,265.8
2022-10-28T02:13:03,42.805,6.029,-0.054,0.0,-0.012,102.0,102.0,101.0,13.3,1505.2,324.0,-0.8,1.8,2471.086,13.29,0.053,270.0
2022-10-28T02:16:03,42.805,6.029,-0.043,0.013,-0.011,102.0,103.0,100.0,13.3,1505.2,322.5,-0.8,1.8,2471.049,13.29,0.044,286.8
2022-10-28T02:19:03,42.805,6.029,-0.014,0.01,0.024,101.0,102.0,101.0,13.3,1505.2,325.5,-0.8,1.8,2471.046,13.29,0.017,305.5
2022-10-28T02:22:03,42.805,6.029,-0.042,0.025,0.014,101.0,103.0,100.0,13.4,1505.2,320.7,-0.8,1.8,2471.028,13.29,0.048,300.8
2022-10-28T02:25:03,42.805,6.029,-0.04,0.011,-0.014,102.0,102.0,101.0,13.4,1505.2,326.3,-0.8,1.8,2470.992,13.29,0.041,285.4
2022-10-28T02:28:03,42.805,6.029,-0.044,0.013,-0.002,102.0,102.0,101.0,13.4,1505.2,320.5,-0.8,1.8,2471.03,13.29,0.045,286.5
2022-10-28T02:31:03,42.805,6.029,-0.029,0.0,-0.03,101.0,102.0,100.0,13.3,1505.2,322.7,-0.7,1.8,2471.015,13.29,0.028,270.0
2022-10-28T02:34:03,42.805,6.029,-0.044,0.011,-0.008,102.0,102.0,101.0,13.3,1505.2,324.9,-0.8,1.8,2471.068,13.29,0.045,284.0
2022-10-28T02:37:03,42.805,6.029,-0.028,0.011,0.0,102.0,102.0,101.0,13.4,1505.2,324.6,-0.7,1.8,2471.001,13.29,0.03,291.4
2022-10-28T02:40:03,42.805,6.029,-0.036,0.022,0.015,102.0,103.0,101.0,13.4,1505.2,321.6,-0.7,1.8,2471.016,13.29,0.042,301.4
2022-10-28T02:43:03,42.805,6.029,-0.03,0.011,0.009,101.0,102.0,101.0,13.4,1505.2,319.2,-0.7,1.8,2471.031,13.29,0.031,290.1
2022-10-28T02:46:03,42.805,6.029,-0.047,0.007,-0.016,102.0,102.0,100.0,13.4,1505.2,323.5,-0.8,1.8,2471.033,13.29,0.047,278.5
2022-10-28T02:49:03,42.805,6.029,-0.044,0.041,0.03,102.0,101.0,100.0,13.4,1505.2,333.7,-0.7,1.8,2471.039,13.29,0.06,313.0
2022-10-28T02:52:03,42.805,6.029,-0.024,0.02,0.021,103.0,101.0,101.0,13.4,1505.2,333.4,-0.8,1.8,2470.992,13.29,0.031,309.8
2022-10-28T02:55:03,42.805,6.029,-0.042,0.021,0.0,101.0,102.0,101.0,13.4,1505.2,320.0,-0.7,1.8,2471.044,13.29,0.046,296.6
2022-10-28T02:58:03,42.805,6.029,-0.06,0.032,-0.008,102.0,102.0,100.0,13.4,1505.2,333.7,-0.8,1.8,2471.022,13.29,0.067,298.1
2022-10-28T03:04:03,42.805,6.029,-0.029,0.0,-0.03,102.0,102.0,100.0,13.3,1505.2,326.4,-0.8,1.8,2471.066,13.29,0.028,270.0
2022-10-28T03:07:03,42.805,6.029,-0.021,0.023,0.036,101.0,102.0,100.0,13.4,1505.2,333.4,-0.7,1.8,2471.057,13.29,0.031,317.6
2022-10-28T03:10:03,42.805,6.029,-0.022,0.004,0.029,101.0,103.0,100.0,13.4,1505.2,332.5,-0.8,1.8,2471.055,13.29,0.022,280.3
2022-10-28T03:13:03,42.805,6.029,0.0,0.018,0.003,102.0,102.0,100.0,13.4,1505.2,333.7,-0.7,1.8,2471.028,13.29,0.018,0.0
2022-10-28T03:16:03,42.805,6.029,-0.038,0.004,-0.009,102.0,103.0,100.0,13.4,1505.2,332.2,-0.8,1.9,2471.051,13.29,0.038,276.0
2022-10-28T03:19:03,42.805,6.029,-0.024,0.003,0.015,101.0,102.0,101.0,13.4,1505.2,324.2,-0.8,1.8,2471.01,13.29,0.024,277.1
2022-10-28T03:22:03,42.805,6.029,-0.032,0.008,0.001,101.0,103.0,101.0,13.4,1505.2,328.1,-0.8,1.8,2471.023,13.29,0.032,284.0
2022-10-28T03:25:03,42.805,6.029,-0.022,0.008,0.0,102.0,102.0,101.0,13.4,1505.2,323.1,-0.7,1.8,2471.017,13.29,0.023,290.0
2022-10-28T03:28:03,42.805,6.029,-0.005,-0.015,-0.004,102.0,101.0,101.0,13.4,1505.2,318.6,-0.7,1.8,2471.004,13.29,0.015,198.4
2022-10-28T03:31:03,42.805,6.029,-0.035,0.008,0.006,102.0,102.0,100.0,13.4,1505.2,320.9,-0.8,1.8,2471.054,13.29,0.035,282.9
2022-10-28T03:34:03,42.805,6.029,-0.042,0.02,0.012,101.0,102.0,100.0,13.4,1505.2,331.8,-0.8,1.8,2471.035,13.29,0.046,295.5
2022-10-28T03:37:03,42.805,6.029,-0.014,0.006,0.007,101.0,102.0,101.0,13.3,1505.2,322.9,-0.8,1.8,2471.016,13.29,0.015,293.2
2022-10-28T03:40:03,42.805,6.029,-0.028,0.015,0.009,102.0,102.0,100.0,13.3,1505.2,326.7,-0.7,1.8,2471.023,13.29,0.031,298.2
2022-10-28T03:43:03,42.805,6.029,-0.036,0.028,0.01,102.0,102.0,101.0,13.4,1505.2,322.0,-0.8,1.8,2471.015,13.29,0.045,307.9
2022-10-28T03:46:03,42.805,6.029,-0.03,0.027,0.047,102.0,102.0,100.0,13.3,1505.2,328.5,-0.8,1.8,2471.025,13.29,0.04,312.0
2022-10-28T03:49:03,42.805,6.029,-0.049,0.017,0.027,102.0,102.0,100.0,13.4,1505.2,320.8,-0.8,1.8,2471.039,13.29,0.051,289.1
2022-10-28T03:52:03,42.805,6.029,-0.036,0.038,0.026,101.0,103.0,100.0,13.4,1505.2,328.5,-0.8,1.8,2471.037,13.29,0.052,316.5
2022-10-28T03:55:03,42.805,6.029,-0.022,0.022,-0.028,101.0,102.0,101.0,13.4,1505.2,332.1,-0.8,1.8,2471.026,13.29,0.031,315.0
2022-10-28T03:58:03,42.805,6.029,-0.028,0.024,-0.005,102.0,102.0,100.0,13.4,1505.2,333.7,-0.8,1.8,2471.051,13.29,0.036,310.6
2022-10-28T04:04:03,42.805,6.029,-0.011,0.005,-0.016,101.0,101.0,101.0,13.4,1505.2,324.1,-0.8,1.8,2471.047,13.29,0.012,294.4
2022-10-28T04:07:03,42.805,6.029,-0.045,0.029,0.034,101.0,102.0,100.0,13.4,1505.2,318.3,-0.7,1.8,2471.066,13.29,0.053,302.8
2022-10-28T04:10:03,42.805,6.029,-0.029,0.026,0.001,101.0,102.0,100.0,13.3,1505.2,327.7,-0.7,1.8,2471.088,13.29,0.038,311.9
2022-10-28T04:13:03,42.805,6.029,-0.032,0.023,0.023,102.0,102.0,101.0,13.4,1505.2,333.7,-0.8,1.8,2471.059,13.29,0.039,305.7
2022-10-28T04:16:03,42.805,6.029,-0.032,0.005,0.014,103.0,102.0,100.0,13.4,1505.2,326.5,-0.8,1.8,2471.077,13.29,0.032,278.9
2022-10-28T04:19:03,42.805,6.029,-0.021,0.013,0.031,101.0,101.0,101.0,13.3,1505.2,317.8,-0.8,1.8,2471.055,13.29,0.024,301.8
2022-10-28T04:22:03,42.805,6.029,-0.048,0.015,0.006,102.0,102.0,100.0,13.4,1505.2,318.8,-0.7,1.8,2471.016,13.29,0.05,287.4
2022-10-28T04:25:03,42.805,6.029,-0.023,0.025,0.003,101.0,102.0,101.0,13.4,1505.2,323.5,-0.7,1.8,2471.057,13.29,0.033,317.4
2022-10-28T04:28:03,42.805,6.029,-0.029,0.004,-0.012,102.0,102.0,100.0,13.3,1505.2,327.3,-0.8,1.8,2471.047,13.29,0.029,277.8
2022-10-28T04:31:03,42.805,6.029,-0.028,0.04,0.009,102.0,102.0,100.0,13.4,1505.2,330.6,-0.7,1.8,2471.082,13.29,0.048,325.0
2022-10-28T04:34:03,42.805,6.029,-0.015,0.016,0.007,103.0,102.0,100.0,13.3,1505.2,332.7,-0.8,1.8,2471.068,13.29,0.021,316.9
2022-10-28T04:37:03,42.805,6.029,-0.013,0.001,0.006,103.0,102.0,101.0,13.4,1505.2,328.9,-0.8,1.8,2471.044,13.29,0.013,274.4
2022-10-28T04:40:03,42.805,6.029,-0.073,0.03,0.018,101.0,102.0,100.0,13.3,1505.2,326.7,-0.8,1.8,2471.022,13.29,0.078,292.3
2022-10-28T04:43:03,42.805,6.029,-0.043,0.029,0.011,100.0,102.0,100.0,13.3,1505.2,327.2,-0.7,1.8,2471.06,13.29,0.051,304.0
2022-10-28T04:46:03,42.805,6.029,-0.029,0.023,0.004,103.0,103.0,100.0,13.4,1505.2,334.0,-0.8,1.8,2471.045,13.29,0.037,308.4
2022-10-28T04:49:03,42.805,6.029,-0.044,0.016,0.008,102.0,102.0,100.0,13.3,1505.2,331.1,-0.8,1.8,2471.049,13.29,0.046,290.0
2022-10-28T04:52:03,42.805,6.029,-0.029,0.017,0.032,102.0,102.0,100.0,13.4,1505.2,326.3,-0.8,1.8,2471.066,13.29,0.033,300.4
2022-10-28T04:55:03,42.805,6.029,-0.02,0.016,0.005,101.0,103.0,101.0,13.4,1505.2,323.2,-0.8,1.8,2471.056,13.29,0.025,308.7
2022-10-28T04:58:03,42.805,6.029,-0.03,0.014,0.035,103.0,102.0,101.0,13.3,1505.2,324.3,-0.7,1.8,2471.067,13.29,0.033,295.0
2022-10-28T05:04:03,42.805,6.029,-0.007,0.013,-0.01,102.0,102.0,101.0,13.3,1505.2,318.5,-0.8,1.8,2471.093,13.28,0.014,331.7
2022-10-28T05:07:03,42.805,6.029,-0.042,0.004,0.009,102.0,102.0,100.0,13.4,1505.2,329.2,-0.7,1.8,2471.098,13.29,0.042,275.4
2022-10-28T05:10:03,42.805,6.029,-0.054,0.011,-0.008,101.0,102.0,101.0,13.3,1505.2,322.1,-0.8,1.8,2471.109,13.29,0.055,281.5
2022-10-28T05:13:03,42.805,6.029,-0.04,0.018,0.039,102.0,102.0,101.0,13.4,1505.2,322.9,-0.8,1.8,2471.09,13.29,0.043,294.2
2022-10-28T05:16:03,42.805,6.029,-0.056,0.004,0.004,102.0,102.0,100.0,13.3,1505.2,322.0,-0.7,1.8,2471.102,13.29,0.056,274.1
2022-10-28T05:19:03,42.805,6.029,-0.009,0.004,0.023,102.0,102.0,101.0,13.4,1505.2,334.7,-0.8,1.8,2471.071,13.29,0.009,294.0
2022-10-28T05:22:03,42.805,6.029,-0.025,0.031,0.034,102.0,103.0,101.0,13.4,1505.2,325.3,-0.8,1.8,2471.103,13.29,0.039,321.1
2022-10-28T05:25:03,42.805,6.029,-0.041,0.016,0.025,103.0,102.0,101.0,13.3,1505.2,323.9,-0.8,1.8,2471.073,13.29,0.044,291.3
2022-10-28T05:28:03,42.805,6.029,-0.045,0.025,-0.02,101.0,103.0,100.0,13.4,1505.2,324.7,-0.8,1.8,2471.104,13.29,0.051,299.1
2022-10-28T05:31:03,42.805,6.029,-0.025,0.015,-0.006,102.0,103.0,100.0,13.4,1505.2,324.1,-0.7,1.8,2471.138,13.29,0.029,301.0
2022-10-28T05:34:03,42.805,6.029,-0.019,0.0,0.008,102.0,102.0,100.0,13.4,1505.2,323.7,-0.7,1.8,2471.094,13.29,0.019,270.0
2022-10-28T05:37:03,42.805,6.029,-0.023,0.034,0.001,102.0,102.0,101.0,13.4,1505.2,334.7,-0.7,1.8,2471.076,13.29,0.041,325.9
2022-10-28T05:40:03,42.805,6.029,-0.01,0.026,0.015,102.0,103.0,101.0,13.3,1505.2,328.3,-0.8,1.8,2471.11,13.29,0.027,339.0
2022-10-28T05:43:03,42.805,6.029,-0.03,0.03,-0.008,102.0,101.0,100.0,13.4,1505.2,329.1,-0.8,1.8,2471.125,13.29,0.042,315.0
2022-10-28T05:46:03,42.805,6.029,-0.022,0.022,0.011,101.0,102.0,100.0,13.4,1505.2,321.5,-0.8,1.8,2471.073,13.29,0.031,315.0
2022-10-28T05:49:03,42.805,6.029,-0.008,0.002,-0.018,104.0,102.0,101.0,13.4,1505.2,333.4,-0.8,1.8,2471.186,13.29,0.008,284.0
2022-10-28T05:52:03,42.805,6.029,-0.012,0.015,-0.002,101.0,103.0,101.0,13.4,1505.2,330.7,-0.8,1.9,2471.149,13.29,0.019,321.3
2022-10-28T05:55:03,42.805,6.029,-0.032,0.02,-0.025,104.0,102.0,100.0,13.3,1505.2,333.7,-0.8,1.8,2471.107,13.29,0.037,302.0
2022-10-28T05:58:03,42.805,6.029,-0.031,0.016,0.001,100.0,101.0,102.0,13.4,1505.2,328.1,-0.8,1.8,2471.169,13.29,0.034,297.3
2022-10-28T06:04:03,42.805,6.029,-0.049,0.026,-0.01,101.0,101.0,101.0,13.4,1505.2,328.2,-0.8,1.8,2471.214,13.28,0.055,297.9
2022-10-28T06:07:03,42.805,6.029,-0.022,0.026,-0.007,101.0,102.0,100.0,13.4,1505.2,335.0,-0.8,1.8,2471.168,13.28,0.034,319.8
2022-10-28T06:10:03,42.805,6.029,-0.05,0.008,-0.007,102.0,102.0,101.0,13.4,1505.2,325.3,-0.8,1.8,2471.181,13.29,0.05,279.1
2022-10-28T06:13:03,42.805,6.029,-0.024,0.02,0.0,101.0,103.0,100.0,13.3,1505.2,335.0,-0.7,1.8,2471.212,13.29,0.031,309.8
2022-10-28T06:16:03,42.805,6.029,-0.028,0.03,-0.017,102.0,102.0,101.0,13.4,1505.2,333.4,-0.8,1.8,2471.181,13.29,0.041,317.0
2022-10-28T06:19:03,42.805,6.029,-0.029,0.04,0.025,101.0,103.0,101.0,13.3,1505.2,332.8,-0.8,1.8,2471.154,13.29,0.049,324.1
2022-10-28T06:22:03,42.805,6.029,-0.037,0.025,0.007,101.0,102.0,100.0,13.4,1505.2,331.3,-0.7,1.8,2471.172,13.29,0.044,304.0
2022-10-28T06:25:03,42.805,6.029,-0.038,0.034,0.008,101.0,103.0,101.0,13.3,1505.2,334.7,-0.7,1.9,2471.166,13.29,0.05,311.8
2022-10-28T06:28:03,42.805,6.029,-0.027,0.032,-0.023,101.0,102.0,101.0,13.4,1505.2,328.8,-0.8,1.8,2471.197,13.29,0.041,319.8
2022-10-28T06:31:03,42.805,6.029,-0.031,0.022,0.026,101.0,103.0,100.0,13.4,1505.2,317.6,-0.8,1.8,2471.187,13.29,0.038,305.4
2022-10-28T06:34:03,42.805,6.029,-0.013,0.009,-0.014,101.0,103.0,101.0,13.3,1505.2,323.1,-0.8,1.8,2471.196,13.29,0.015,304.7
2022-10-28T06:37:03,42.805,6.029,-0.037,0.031,0.019,102.0,102.0,101.0,13.3,1505.2,323.2,-0.7,1.8,2471.199,13.29,0.048,310.0
2022-10-28T06:40:03,42.805,6.029,-0.023,0.03,0.022,101.0,102.0,101.0,13.4,1505.2,332.4,-0.7,1.8,2471.163,13.29,0.037,322.5
2022-10-28T06:43:03,42.805,6.029,-0.031,0.018,-0.01,101.0,103.0,100.0,13.3,1505.2,329.6,-0.8,1.8,2471.177,13.29,0.035,300.1
2022-10-28T06:46:03,42.805,6.029,-0.028,0.015,-0.009,102.0,101.0,101.0,13.3,1505.2,321.5,-0.8,1.8,2471.162,13.29,0.031,298.2
2022-10-28T06:49:03,42.805,6.029,-0.017,0.018,0.017,102.0,102.0,101.0,13.3,1505.2,328.9,-0.7,1.8,2471.21,13.29,0.024,316.6
2022-10-28T06:52:03,42.805,6.029,-0.038,0.032,0.008,101.0,102.0,101.0,13.4,1505.2,332.7,-0.8,1.8,2471.172,13.29,0.049,310.1
2022-10-28T06:55:03,42.805,6.029,-0.026,0.03,0.0,100.0,103.0,102.0,13.3,1505.2,325.3,-0.8,1.8,2471.194,13.29,0.039,319.1
2022-10-28T06:58:03,42.805,6.029,-0.034,0.009,0.0,101.0,101.0,101.0,13.4,1505.2,318.8,-0.8,1.8,2471.188,13.29,0.035,284.8
2022-10-28T07:04:03,42.805,6.029,-0.042,0.024,-0.029,101.0,102.0,100.0,13.4,1505.2,325.0,-0.8,1.8,2471.275,13.28,0.048,299.7
2022-10-28T07:07:03,42.805,6.029,-0.05,0.03,0.042,102.0,101.0,101.0,13.3,1505.2,322.3,-0.8,1.8,2471.273,13.28,0.058,301.0
2022-10-28T07:10:03,42.805,6.029,-0.041,0.002,-0.001,101.0,103.0,100.0,13.4,1505.2,320.5,-0.8,1.8,2471.237,13.29,0.041,272.8
2022-10-28T07:13:03,42.805,6.029,-0.013,0.017,0.008,102.0,103.0,101.0,13.4,1505.2,319.9,-0.7,1.8,2471.251,13.29,0.021,322.6
2022-10-28T07:16:03,42.805,6.029,-0.024,0.015,0.008,101.0,103.0,100.0,13.4,1505.2,333.4,-0.7,1.8,2471.238,13.29,0.028,302.0
2022-10-28T07:19:03,42.805,6.029,-0.055,0.023,0.02,100.0,102.0,101.0,13.4,1505.2,318.4,-0.8,1.9,2471.243,13.29,0.059,292.7
2022-10-28T07:22:03,42.805,6.029,-0.026,0.017,0.014,101.0,103.0,101.0,13.4,1505.2,326.9,-0.8,1.8,2471.222,13.29,0.031,303.2
2022-10-28T07:25:03,42.805,6.029,-0.028,0.02,-0.003,101.0,101.0,101.0,13.3,1505.2,328.2,-0.8,1.8,2471.258,13.29,0.034,305.5
2022-10-28T07:28:03,42.805,6.029,-0.024,0.029,0.038,101.0,102.0,100.0,13.4,1505.2,324.8,-0.7,1.8,2471.251,13.29,0.037,320.4
2022-10-28T07:31:03,42.805,6.029,-0.046,-0.006,-0.037,101.0,102.0,101.0,13.4,1505.2,327.5,-0.7,1.8,2471.262,13.29,0.046,262.6
2022-10-28T07:34:03,42.805,6.029,-0.026,0.022,0.037,102.0,102.0,100.0,13.4,1505.2,317.2,-0.7,1.8,2471.271,13.29,0.034,310.2
2022-10-28T07:37:03,42.805,6.029,0.0,0.028,0.016,102.0,102.0,100.0,13.4,1505.2,329.4,-0.8,1.8,2471.246,13.29,0.028,0.0
2022-10-28T07:40:03,42.805,6.029,-0.035,0.048,0.005,102.0,102.0,100.0,13.4,1505.2,329.7,-0.7,1.8,2471.196,13.29,0.059,323.9
2022-10-28T07:43:03,42.805,6.029,-0.037,0.019,0.026,102.0,102.0,101.0,13.3,1505.2,322.7,-0.8,1.8,2471.219,13.29,0.041,297.2
2022-10-28T07:46:03,42.805,6.029,-0.029,0.017,0.016,104.0,103.0,100.0,13.3,1505.2,324.9,-0.8,1.8,2471.229,13.29,0.033,300.4
2022-10-28T07:49:03,42.805,6.029,-0.011,0.048,0.053,101.0,102.0,101.0,13.3,1505.2,322.4,-0.8,1.8,2471.274,13.29,0.049,347.1
2022-10-28T07:52:03,42.805,6.029,-0.043,0.046,-0.006,101.0,102.0,100.0,13.4,1505.2,329.6,-0.8,1.8,2471.246,13.29,0.062,316.9
2022-10-28T07:55:03,42.805,6.029,-0.019,0.003,-0.014,101.0,102.0,101.0,13.3,1505.2,323.7,-0.8,1.8,2471.244,13.29,0.019,279.0
2022-10-28T07:58:03,42.805,6.029,-0.035,0.0,0.024,101.0,102.0,100.0,13.3,1505.2,321.4,-0.8,1.8,2471.272,13.29,0.035,270.0
2022-10-28T08:04:03,42.805,6.029,-0.031,0.022,-0.011,102.0,103.0,101.0,13.4,1505.2,319.7,-0.8,1.8,2471.321,13.28,0.038,305.4
2022-10-28T08:07:03,42.805,6.029,-0.035,0.013,-0.014,102.0,102.0,101.0,13.4,1505.2,317.7,-0.7,1.9,2471.315,13.29,0.037,290.4
2022-10-28T08:10:03,42.805,6.029,-0.036,0.023,0.01,102.0,102.0,101.0,13.4,1505.2,316.3,-0.8,1.8,2471.28,13.29,0.042,302.6
2022-10-28T08:13:03,42.805,6.029,-0.016,0.007,-0.01,102.0,102.0,100.0,13.4,1505.2,323.6,-0.8,1.8,2471.294,13.29,0.017,293.6
2022-10-28T08:16:03,42.805,6.029,-0.032,0.012,0.009,102.0,102.0,101.0,13.4,1505.2,327.1,-0.8,1.8,2471.285,13.29,0.034,290.6
2022-10-28T08:19:03,42.805,6.029,-0.019,-0.009,-0.05,102.0,101.0,100.0,13.4,1505.2,317.1,-0.8,1.8,2471.234,13.29,0.021,244.7
2022-10-28T08:22:03,42.805,6.029,-0.058,0.04,0.013,101.0,102.0,101.0,13.4,1505.2,318.0,-0.8,1.8,2471.275,13.29,0.07,304.6
2022-10-28T08:25:03,42.805,6.029,-0.01,0.016,0.004,102.0,102.0,101.0,13.3,1505.2,323.6,-0.8,1.8,2471.295,13.29,0.018,328.0
2022-10-28T08:28:03,42.805,6.029,-0.023,0.017,-0.006,101.0,103.0,100.0,13.3,1505.2,335.3,-0.8,1.8,2471.288,13.29,0.028,306.5
2022-10-28T08:31:03,42.805,6.029,-0.018,0.029,0.008,100.0,103.0,101.0,13.3,1505.2,329.6,-0.8,1.9,2471.277,13.29,0.034,328.2
2022-10-28T08:34:03,42.805,6.029,-0.011,0.037,0.041,102.0,103.0,101.0,13.3,1505.2,330.6,-0.7,1.8,2471.334,13.29,0.038,343.4
2022-10-28T08:37:03,42.805,6.029,-0.023,0.021,0.016,102.0,102.0,101.0,13.3,1505.2,327.5,-0.7,1.8,2471.268,13.29,0.031,312.4
2022-10-28T08:40:03,42.805,6.029,-0.022,0.034,0.01,102.0,102.0,100.0,13.4,1505.2,326.6,-0.8,1.8,2471.259,13.29,0.04,327.1
2022-10-28T08:43:03,42.805,6.029,-0.004,0.018,0.017,103.0,100.0,101.0,13.4,1505.2,333.1,-0.8,1.8,2471.278,13.29,0.018,347.5
2022-10-28T08:46:03,42.805,6.029,-0.012,0.017,-0.007,103.0,102.0,101.0,13.4,1505.2,333.1,-0.8,1.8,2471.261,13.29,0.02,324.8
2022-10-28T08:49:03,42.805,6.029,-0.021,0.026,0.003,102.0,102.0,101.0,13.3,1505.2,332.4,-0.8,1.9,2471.269,13.29,0.033,321.1
2022-10-28T08:52:03,42.805,6.029,-0.02,0.001,-0.025,102.0,102.0,102.0,13.4,1505.2,330.4,-0.8,1.8,2471.308,13.29,0.02,272.9
2022-10-28T08:55:03,42.805,6.029,-0.031,0.015,-0.023,102.0,101.0,100.0,13.4,1505.2,320.9,-0.8,1.8,2471.287,13.29,0.034,295.8
2022-10-28T08:58:03,42.805,6.029,-0.029,0.018,0.0,102.0,102.0,100.0,13.4,1505.2,321.5,-0.8,1.8,2471.258,13.29,0.034,301.8
2022-10-28T09:04:03,42.805,6.029,-0.027,0.008,0.007,102.0,103.0,101.0,13.4,1505.2,315.9,-0.8,1.8,2471.346,13.29,0.028,286.5
2022-10-28T09:07:03,42.805,6.029,-0.029,0.031,0.012,100.0,103.0,101.0,13.4,1505.2,328.6,-0.8,1.8,2471.3,13.29,0.042,316.9
2022-10-28T09:10:03,42.805,6.029,-0.032,0.013,0.008,102.0,102.0,101.0,13.4,1505.2,328.4,-0.8,1.8,2471.277,13.29,0.034,292.1
2022-10-28T09:13:03,42.805,6.029,-0.025,-0.001,0.008,101.0,102.0,100.0,13.4,1505.2,328.5,-0.7,1.8,2471.278,13.29,0.025,267.7
2022-10-28T09:16:03,42.805,6.029,-0.024,-0.006,-0.008,101.0,102.0,100.0,13.4,1505.2,326.7,-0.7,1.8,2471.306,13.29,0.024,256.0
2022-10-28T09:19:03,42.805,6.029,-0.027,0.033,0.01,102.0,102.0,101.0,13.4,1505.2,327.9,-0.7,1.8,2471.281,13.29,0.042,320.7
2022-10-28T09:22:03,42.805,6.029,-0.043,0.043,-0.001,103.0,102.0,101.0,13.4,1505.2,322.7,-0.7,1.8,2471.272,13.29,0.06,315.0
2022-10-28T09:25:03,42.805,6.029,-0.044,0.003,-0.005,102.0,102.0,100.0,13.3,1505.2,318.1,-0.8,1.8,2471.273,13.29,0.044,273.9
2022-10-28T09:28:03,42.805,6.029,-0.021,0.021,0.001,102.0,101.0,101.0,13.4,1505.2,321.3,-0.8,1.8,2471.285,13.29,0.029,315.0
2022-10-28T09:31:03,42.805,6.029,-0.012,0.03,0.021,101.0,102.0,101.0,13.4,1505.2,327.9,-0.8,1.8,2471.275,13.29,0.032,338.2
2022-10-28T09:34:03,42.805,6.029,-0.011,0.028,-0.004,101.0,102.0,101.0,13.4,1505.2,328.7,-0.8,1.8,2471.278,13.29,0.03,338.6
2022-10-28T09:37:03,42.805,6.029,-0.037,0.038,0.001,102.0,102.0,101.0,13.3,1505.2,331.7,-0.8,1.8,2471.257,13.29,0.053,315.8
2022-10-28T09:40:03,42.805,6.029,-0.029,0.015,-0.019,101.0,102.0,100.0,13.4,1505.2,323.7,-0.8,1.8,2471.265,13.29,0.032,297.4
2022-10-28T09:43:03,42.805,6.029,-0.01,0.012,-0.007,101.0,103.0,101.0,13.3,1505.2,331.7,-0.8,1.8,2471.258,13.29,0.015,320.2
2022-10-28T09:46:03,42.805,6.029,-0.009,0.005,-0.025,101.0,102.0,101.0,13.4,1505.2,333.4,-0.7,1.8,2471.259,13.29,0.01,299.1
2022-10-28T09:49:03,42.805,6.029,-0.042,0.007,0.003,101.0,102.0,102.0,13.4,1505.2,321.5,-0.8,1.8,2471.268,13.29,0.042,279.5
2022-10-28T09:52:03,42.805,6.029,-0.038,0.005,-0.011,104.0,102.0,100.0,13.4,1505.2,324.2,-0.8,1.8,2471.239,13.29,0.038,277.5
2022-10-28T09:55:03,42.805,6.029,-0.012,0.006,0.004,101.0,101.0,100.0,13.3,1505.2,325.0,-0.8,1.8,2471.293,13.29,0.013,296.6